Time,TemperatureF,DewpointF,PressureIn,WindDirection,WindDirectionDegrees,WindSpeedMPH,WindSpeedGustMPH,Humidity,HourlyPrecipIn,Conditions,Clouds,dailyrainin,SolarRadiationWatts/m^2,SoftwareType,DateUTC
2013-05-22 04:00:00,81.0,-99.9,29.84,South,178,3.0,-999.0,-8190,-99.99,,,-99.99,0.000000,,2013-05-22 08:00:00,
2013-05-22 04:52:00,81.0,-99.9,29.84,South,178,3.0,-999.0,-8190,-99.99,,,-99.99,0.000000,,2013-05-22 08:52:00,
2013-05-22 05:00:00,71.0,-99.9,29.83,SSW,192,2.0,-999.0,-8190,-99.99,,,-99.99,0.000000,,2013-05-22 09:00:00,
2013-05-22 05:53:00,71.0,-99.9,29.83,SSW,192,2.0,-999.0,-8190,-99.99,,,-99.99,0.000000,,2013-05-22 09:53:00,
2013-05-22 06:00:00,62.0,-99.9,29.82,SSW,199,1.0,-999.0,-8190,-99.99,,,-99.99,3.190000,,2013-05-22 10:00:00,
2013-05-22 06:53:00,62.0,-99.9,29.82,SSW,199,1.0,-999.0,-8190,-99.99,,,-99.99,3.190000,,2013-05-22 10:53:00,
2013-05-22 07:00:00,63.0,63.0,29.83,South,183,2.0,-999.0,100,-99.99,,,-99.99,46.380001,,2013-05-22 11:00:00,
2013-05-22 07:53:00,63.0,63.0,29.83,South,183,2.0,-999.0,100,-99.99,,,-99.99,46.380001,,2013-05-22 11:53:00,
2013-05-22 08:00:00,65.0,65.0,29.84,SSE,163,3.0,-999.0,100,-99.99,,,-99.99,74.339996,,2013-05-22 12:00:00,
2013-05-22 08:52:00,65.0,65.0,29.84,SSE,163,3.0,-999.0,100,-99.99,,,-99.99,74.339996,,2013-05-22 12:52:00,
2013-05-22 09:00:00,68.0,67.0,29.85,SSE,157,4.0,-999.0,94,-99.99,,,-99.99,149.600006,,2013-05-22 13:00:00,
2013-05-22 09:52:00,68.0,67.0,29.85,SSE,157,4.0,-999.0,94,-99.99,,,-99.99,149.600006,,2013-05-22 13:52:00,
2013-05-22 10:00:00,71.0,65.0,29.85,South,189,6.0,-999.0,82,-99.99,,,-99.99,178.000000,,2013-05-22 14:00:00,
2013-05-22 10:53:00,71.0,65.0,29.85,South,189,6.0,-999.0,82,-99.99,,,-99.99,178.000000,,2013-05-22 14:53:00,
2013-05-22 11:00:00,72.0,67.0,29.85,SSW,195,6.0,-999.0,83,-99.99,,,-99.99,231.300003,,2013-05-22 15:00:00,
2013-05-22 11:53:00,72.0,67.0,29.85,SSW,195,6.0,-999.0,83,-99.99,,,-99.99,231.300003,,2013-05-22 15:53:00,
2013-05-22 12:00:00,77.0,69.0,29.84,South,189,7.0,-999.0,77,-99.99,,,-99.99,569.500000,,2013-05-22 16:00:00,
2013-05-22 12:53:00,77.0,69.0,29.84,South,189,7.0,-999.0,77,-99.99,,,-99.99,569.500000,,2013-05-22 16:53:00,
2013-05-22 13:00:00,80.0,68.0,29.82,SSW,201,8.0,-999.0,68,-99.99,,,-99.99,917.000000,,2013-05-22 17:00:00,
2013-05-22 13:54:00,80.0,68.0,29.82,SSW,201,8.0,-999.0,68,-99.99,,,-99.99,917.000000,,2013-05-22 17:54:00,
2013-05-22 16:00:00,83.0,72.0,29.78,SE,131,8.0,-999.0,68,-99.99,,,-99.99,757.799988,,2013-05-22 20:00:00,
2013-05-22 16:52:00,83.0,72.0,29.78,SE,131,8.0,-999.0,68,-99.99,,,-99.99,757.799988,,2013-05-22 20:52:00,
2013-05-22 17:00:00,83.0,69.0,29.76,SE,146,5.0,-999.0,64,-99.99,,,-99.99,490.500000,,2013-05-22 21:00:00,
2013-05-22 17:53:00,83.0,69.0,29.76,SE,146,5.0,-999.0,64,-99.99,,,-99.99,490.500000,,2013-05-22 21:53:00,
2013-05-22 18:00:00,84.0,68.0,29.74,SE,146,5.0,-999.0,59,-99.99,,,-99.99,440.799988,,2013-05-22 22:00:00,
2013-05-22 18:52:00,84.0,68.0,29.74,SE,146,5.0,-999.0,59,-99.99,,,-99.99,440.799988,,2013-05-22 22:52:00,
2013-05-22 19:00:00,81.0,70.0,29.74,NNE,16,3.0,-999.0,69,-99.99,,,-99.99,204.500000,,2013-05-22 23:00:00,
2013-05-22 19:53:00,81.0,70.0,29.74,NNE,16,3.0,-999.0,69,-99.99,,,-99.99,204.500000,,2013-05-22 23:53:00,
2013-05-22 20:00:00,80.0,63.0,29.73,SW,220,3.0,-999.0,56,-99.99,,,-99.99,73.870003,,2013-05-23 00:00:00,
2013-05-22 20:52:00,80.0,63.0,29.73,SW,220,3.0,-999.0,56,-99.99,,,-99.99,73.870003,,2013-05-23 00:52:00,
2013-05-22 21:00:00,77.0,76.0,29.72,SSW,202,11.0,-999.0,94,-99.99,,,-99.99,4.240000,,2013-05-23 01:00:00,
2013-05-22 21:52:00,77.0,76.0,29.72,SSW,202,11.0,-999.0,94,-99.99,,,-99.99,4.240000,,2013-05-23 01:52:00,
2013-05-22 23:00:00,74.0,72.0,29.76,SSW,200,7.0,-999.0,92,-99.99,,,-99.99,0.000000,,2013-05-23 03:00:00,
2013-05-22 23:53:00,74.0,72.0,29.76,SSW,200,7.0,-999.0,92,-99.99,,,-99.99,0.000000,,2013-05-23 03:53:00,